Location: Chimay
(50.0486°N, 4.3171°E)
Time: 21:12:27
(UTC+00:00)

IRIDIUM 106 - Pass Details

Date: 08 August 2020
Orbit: 776 x 779 km, 86.4° (Epoch: 21 September)

Event Time Altitude Azimuth Distance (km) Brightness Sun altitude
Rises 20:01:25 0° 178° (S) 3,250 7.2 -7.5°
Reaches altitude 10° 20:03:45 10° 177° (S) 2,327 6.4 -7.8°
Maximum altitude 20:08:57 79° 92° (E) 801 4.3 -8.4°
Drops below altitude 10° 20:14:12 10° 6° (N) 2,344 7.3 -9.1°
Sets 20:16:34 0° 6° (N) 3,277 8.1 -9.4°
